Regional Weather Roundup
Issued by NWS

Home | Current Version | Previous Version | Graphics & Text | Print | Product List | Glossary On
Versions: 1 2 3 4 5 6 7 8 9 10 11 12 13 14 15 16 17 18 19 20 21 22 23 24 25 26 27 28 29 30 31 32 33 34 35 36 37 38 39 40 41 42 43 44 45 46 47 48 49 50
000
ASUS43 KIND 201709
RWRIN

WEATHER ROUNDUP FOR INDIANA
NATIONAL WEATHER SERVICE INDIANAPOLIS IN
1200 PM EST THU NOV 20 2014

NOTE: "FAIR" INDICATES FEW OR NO CLOUDS BELOW 12,000 FEET WITH NO
SIGNIFICANT WEATHER AND/OR OBSTRUCTIONS TO VISIBILITY.

* - STATION DOES NOT REPORT WEATHER SUCH AS PRECIPITATION OR FOG.

+ - STATION NOT QUALITY CONTROLLED BY THE NATIONAL WEATHER SERVICE.
    USE DATA WITH CAUTION...ESPECIALLY DEWPOINT AND RELATIVE
    HUMIDITY OBSERVATIONS.

INZ001>003-010>013-019-020-201800-
NORTHWEST INDIANA

CITY           SKY/WX    TMP DP  RH WIND       PRES   REMARKS
GARY /AIRPORT/ MOSUNNY   28  10  47 W20G36    30.08S WCI  15
KNOX *+        MOSUNNY   26  12  53 W16G26    30.07S WCI  14
LA PORTE +     MOSUNNY   29  11  47 W21G29    30.06S WCI  15
MICHIGAN CITY+ CLOUDY    28   9  43 W16G28    30.06S WCI  17
MONTICELLO +   PTSUNNY   27  15  60 W13G24    30.12S WCI  16
RENSSELAER +   MOSUNNY   28  16  59 W18G28    30.11F WCI  16
VALPARAISO     MOSUNNY   26   9  48 W18G29    30.07F WCI  13

$$

LMZ046-743>745-201800-
SOUTHERN LAKE MICHIGAN

STATION/POSITION TIME  TEMP WIND        PRES
                       AIR  DIR/SP/G
                 (UTC) (F)  (DEG/KT/KT) (MB)
MICHIGAN CITY    1700   24  240/ 23/ 28   N/A

$$

INZ004-005-014>016-021>024-201800-
NORTH CENTRAL INDIANA

CITY           SKY/WX    TMP DP  RH WIND       PRES   REMARKS
ELKHART        FLURRIES  25  14  63 W16G22    30.03S WCI  12
GOSHEN         CLOUDY    25  14  63 W20G30    30.03R WCI  11
LOGANSPORT +   PTSUNNY   27  14  59 W20G29    30.11S WCI  13
PERU/GRISSOM   PTSUNNY   27  19  74 W24       30.09S WCI  12
ROCHESTER +    MOSUNNY   30  14  51 W15G22    30.08S WCI  19
SOUTH BEND     CLOUDY    24  13  62 W22       30.04R WCI   9
WARSAW +       MOSUNNY   27  14  59 W20G28    30.04F WCI  13

$$

INZ006>009-017-018-025>027-201800-
NORTHEAST INDIANA

CITY           SKY/WX    TMP DP  RH WIND       PRES   REMARKS
ANGOLA *+      CLOUDY    25  14  63 W16       29.98S WCI  12
AUBURN +       MOSUNNY   28  12  50 W17G26    30.03S WCI  16
FORT WAYNE     PTSUNNY   25  13  60 W23G33    30.06S WCI  10
HUNTINGTON +   PTSUNNY   26  14  60 W20G28    30.07S WCI  12

$$

INZ028-029-035-036-043>045-051>053-201800-
WEST CENTRAL INDIANA

CITY           SKY/WX    TMP DP  RH WIND       PRES   REMARKS
GREENCASTLE +  MOSUNNY   28  14  54 W14G20    30.18S WCI  17
LAFAYETTE      MOSUNNY   26  15  63 W17G23    30.15S WCI  13
TERRE HAUTE    PTSUNNY   29  15  56 W15       30.22S WCI  18

$$

INZ030>032-037>040-046>048-054>057-064-065-201800-
CENTRAL INDIANA

CITY           SKY/WX    TMP DP  RH WIND       PRES   REMARKS
CP ATTERBURY + MOSUNNY   32  14  47 W10G18    30.18F WCI  24
COLUMBUS       MOSUNNY   28  16  59 W16       30.20S WCI  17
FRANKFORT +    MOSUNNY   26  17  68 SW21G26   30.15R WCI  11
INDIANAPOLIS   PTSUNNY   28  14  55 W20G28    30.17S WCI  15
-EAGLE CREEK   MOSUNNY   26  13  57 W13G20    30.15S WCI  15
KOKOMO *+      PTSUNNY   25  16  68 W23G31    30.12R WCI  10
MARION +       CLOUDY    25  16  66 W20       30.11S WCI  11
MT COMFORT *+  SUNNY     28   7  40 W23         N/A  WCI  14
SHELBYVILLE    MOSUNNY   30  15  53 W21G26    30.15F WCI  17
ZIONSVILLE +   MOSUNNY   27  13  56 W18G25    30.15R WCI  13

$$

INZ033-034-041-042-049-050-058-059-201800-
EAST CENTRAL INDIANA

CITY           SKY/WX    TMP DP  RH WIND       PRES   REMARKS
MUNCIE         MOSUNNY   25  12  58 W23G30    30.10F WCI  10

$$

INZ060-061-067>069-081>083-085>088-201800-
SOUTHWEST INDIANA

CITY           SKY/WX    TMP DP  RH WIND       PRES   REMARKS
EVANSVILLE     MOSUNNY   31  16  54 W13G18    30.29F WCI  21
HUNTINGBURG *+ PTSUNNY   30  16  55 W7        30.27F WCI  23
WASHINGTON +   MOSUNNY   30  18  60 W14       30.25F WCI  19

$$

INZ062-063-066-070>080-084-089>092-201800-
SOUTH CENTRAL AND SOUTHEAST INDIANA

CITY           SKY/WX    TMP DP  RH WIND       PRES   REMARKS
BLOOMINGTON    MOSUNNY   28  15  58 W15G23    30.19F WCI  16
SEYMOUR +      MOSUNNY   32  16  51 W14G20    30.22S WCI  22

$$




USA.gov is the U.S. government's official web portal to all federal, state and local government web resources and services.